GW0234 Weather Reports


Display with metric or nautical units.
time (UTC)temp
F
wind
direction
speed
MPH
gust
MPH
rain 1hr
in
rain 24hr
in
rain mn
in
humidity
%
barometer
mb
20260509120113 48 0 2.0 5.0 0.01 0.58 0.43 91 1007.0
20260509114601 48 11 0.0 3.0 0.01 0.60 0.43 91 1006.9
20260509113106 48 0 0.0 2.0 0.02 0.60 0.43 91 1006.8
20260509111607 48 360 0.0 4.0 0.02 0.58 0.42 91 1006.9
20260509110100 48 0 0.0 2.0 0.06 0.58 0.42 90 1006.8
20260509104558 48 0 1.0 3.0 0.10 0.58 0.42 91 1006.6
20260509103106 48 0 0.0 2.0 0.14 0.58 0.41 91 1006.7
20260509101624 47 10 1.0 3.0 0.15 0.57 0.40 90 1006.9
20260509100059 47 31 0.0 2.0 0.13 0.52 0.36 90 1006.9
20260509094603 47 341 1.0 4.0 0.12 0.49 0.32 90 1007.1
20260509093108 47 12 1.0 3.0 0.11 0.44 0.27 90 1007.3
20260509091605 47 5 1.0 4.0 0.11 0.42 0.25 90 1007.3
20260509084610 47 0 0.0 2.0 0.13 0.38 0.20 90 1007.6
20260509083058 47 0 0.0 3.0 0.11 0.34 0.16 90 1007.8
20260509081610 47 9 1.0 3.0 0.09 0.31 0.13 90 1007.7
20260509074600 47 0 0.0 2.0 0.03 0.25 0.07 89 1007.6
20260509073107 47 26 1.0 3.0 0.01 0.23 0.05 89 1007.7
20260509071559 47 0 0.0 1.0 0.00 0.22 0.04 89 1007.6
20260509070101 47 0 0.0 3.0 0.00 0.22 0.04 89 1007.5
20260509064620 47 0 0.0 2.0 0.00 0.22 0.04 89 1007.6
20260509063103 47 27 1.0 3.0 0.00 0.22 0.04 89 1007.8
20260509061606 47 11 0.0 2.0 0.00 0.22 0.04 89 1008.1
20260509060101 48 11 0.0 3.0 0.00 0.22 0.04 89 1008.3
20260509054603 48 13 0.0 3.0 0.01 0.22 0.04 89 1008.6
20260509053111 48 15 1.0 3.0 0.02 0.22 0.04 88 1008.9
20260509051609 48 19 1.0 3.0 0.03 0.22 0.04 88 1008.8
20260509050100 48 19 0.0 2.0 0.04 0.22 0.04 88 1008.9
20260509044559 48 0 0.0 2.0 0.04 0.21 0.03 88 1009.1
20260509043100 48 19 1.0 3.0 0.04 0.20 0.02 88 1009.5
20260509041619 48 19 1.0 3.0 0.04 0.19 0.01 88 1009.8
20260509040056 48 0 0.0 3.0 0.04 0.18 0.00 88 1009.9
20260509034556 48 5 0.0 3.0 0.04 0.17 0.17 87 1009.9
20260509033056 48 5 0.0 3.0 0.04 0.16 0.16 87 1010.1
20260509031556 48 5 1.0 3.0 0.04 0.15 0.15 87 1010.1
20260509030059 48 15 0.0 2.0 0.04 0.14 0.14 87 1010.1
20260509024600 48 5 1.0 2.0 0.04 0.13 0.13 86 1010.4
20260509023111 48 11 0.0 2.0 0.03 0.12 0.12 86 1010.6
20260509021601 49 11 0.0 1.0 0.02 0.11 0.11 86 1010.7
20260509020101 49 0 0.0 1.0 0.02 0.10 0.10 86 1010.4
20260509014557 49 0 0.0 3.0 0.01 0.09 0.09 86 1010.1
20260509013102 49 5 0.0 2.0 0.01 0.09 0.09 85 1009.8
20260509011601 49 5 0.0 2.0 0.01 0.09 0.09 85 1009.5
20260509010056 49 0 0.0 1.0 0.00 0.08 0.08 84 1009.6
20260509004558 49 0 1.0 3.0 0.00 0.08 0.08 84 1009.3
20260509003057 49 5 0.0 2.0 0.00 0.08 0.08 84 1009.2
20260509001558 50 0 0.0 0.0 0.00 0.08 0.08 83 1009.3
20260509000111 50 0 0.0 0.0 0.00 0.08 0.08 83 1009.3
20260508234557 50 0 0.0 0.0 0.00 0.08 0.08 83 1009.0
20260508233117 50 0 0.0 1.0 0.01 0.08 0.08 82 1008.9
20260508231559 50 0 0.0 1.0 0.01 0.08 0.08 81 1008.8
20260508230105 51 0 0.0 1.0 0.01 0.08 0.08 80 1009.2
20260508224559 51 0 0.0 4.0 0.01 0.08 0.08 78 1009.5
20260508223055 51 0 0.0 3.0 0.00 0.07 0.07 77 1009.3
20260508221557 52 0 0.0 8.0 0.00 0.07 0.07 74 1009.3
20260508220056 52 360 2.0 9.0 0.00 0.07 0.07 73 1009.3
20260508214556 53 360 1.0 6.0 0.00 0.07 0.07 71 1009.4
20260508213057 54 331 3.0 8.0 0.00 0.07 0.07 68 1009.4
20260508211558 54 0 2.0 5.0 0.00 0.07 0.07 68 1009.5
20260508210055 54 311 3.0 9.0 0.00 0.07 0.07 66 1009.4
20260508204602 55 51 1.0 9.0 0.00 0.07 0.07 68 1009.3
20260508203058 55 0 2.0 9.0 0.00 0.07 0.07 70 1009.5
20260508201558 55 360 6.0 16.0 0.00 0.07 0.07 68 1009.5
20260508200111 56 15 3.0 13.0 0.00 0.07 0.07 69 1009.5
20260508194558 55 342 4.0 12.0 0.01 0.07 0.07 73 1009.6
20260508193140 54 360 2.0 6.0 0.02 0.07 0.07 73 1009.7
20260508191559 54 125 1.0 3.0 0.03 0.07 0.07 75 1009.9
20260508190056 54 17 1.0 7.0 0.03 0.07 0.07 75 1010.3
20260508184606 54 341 0.0 5.0 0.02 0.06 0.06 74 1010.1
20260508183124 56 346 2.0 11.0 0.01 0.05 0.05 66 1010.2
20260508181605 58 23 2.0 8.0 0.00 0.04 0.04 60 1009.7
20260508180100 58 332 1.0 9.0 0.00 0.04 0.04 60 1009.6
20260508174603 58 90 1.0 5.0 0.00 0.04 0.04 61 1009.6
20260508173056 58 0 2.0 10.0 0.00 0.04 0.04 59 1009.8
20260508171558 57 5 1.0 6.0 0.00 0.04 0.04 64 1009.9
20260508170101 56 221 2.0 9.0 0.00 0.04 0.04 64 1010.4
20260508164559 57 51 4.0 9.0 0.00 0.04 0.04 60 1010.3
20260508163059 57 355 2.0 9.0 0.00 0.04 0.04 66 1010.4
20260508161557 55 157 1.0 7.0 0.00 0.04 0.04 68 1010.8
20260508160057 54 71 1.0 8.0 0.00 0.04 0.04 71 1011.0
20260508154615 53 26 2.0 8.0 0.01 0.04 0.04 72 1011.3
20260508153057 51 171 1.0 4.0 0.01 0.04 0.04 75 1011.4
20260508151605 49 53 1.0 4.0 0.01 0.04 0.04 77 1011.3
20260508150056 49 0 0.0 4.0 0.01 0.04 0.04 78 1011.3
20260508144607 49 0 2.0 6.0 0.01 0.03 0.03 75 1011.9
20260508143105 49 130 1.0 6.0 0.01 0.03 0.03 75 1011.4
20260508141604 49 173 1.0 6.0 0.01 0.03 0.03 76 1011.4
20260508140057 49 106 2.0 6.0 0.01 0.03 0.03 74 1011.5
20260508134621 51 0 1.0 7.0 0.00 0.02 0.02 68 1011.7
20260508133102 51 142 1.0 6.0 0.00 0.02 0.02 68 1011.2
20260508131556 49 174 2.0 7.0 0.00 0.02 0.02 70 1011.3
20260508130055 49 174 1.0 6.0 0.00 0.02 0.02 70 1011.3
20260508124602 48 84 1.0 6.0 0.00 0.02 0.02 72 1011.1
20260508123056 48 344 1.0 10.0 0.01 0.02 0.02 73 1011.2
20260508121557 46 175 2.0 8.0 0.01 0.02 0.02 75 1011.3